Location: Brachbach
(49.1847°N, 9.7240°E)
Time: 16:03:49
(UTC+00:00)

PCSat - Visible Passes

Search period start: 11 March 2026 00:00
Search period end: 21 March 2026 00:00
Orbit: 780 x 790 km, 67.1° (Epoch: 11 March)

Date Brightness Start Highest point End Pass type
(mag) Time Alt. Az. Time Alt. Az. Time Alt. Az.
11 Mar 12.1 00:57:43 17° N 00:57:43 17° N 00:59:19 10° NNE visible
11 Mar 12.0 02:38:18 11° NNW 02:40:05 12° N 02:42:17 10° NNE visible
11 Mar 12.0 04:23:00 10° NNW 04:25:51 14° NNE 04:28:42 10° NE visible
12 Mar 12.2 00:25:57 15° NNE 00:25:57 15° NNE 00:27:03 10° NNE visible
12 Mar 12.0 02:06:33 13° NNW 02:07:19 13° NNW 02:09:53 10° NNE visible
12 Mar 12.1 03:50:39 10° NNW 03:53:05 13° NNE 03:55:31 10° NE visible
12 Mar 12.4 23:54:10 13° NNE 23:54:10 13° NNE 23:54:47 10° NNE visible
13 Mar 12.0 01:34:45 15° NNW 01:34:45 15° NNW 01:37:34 10° NNE visible
13 Mar 12.1 03:18:14 10° NNW 03:20:18 12° N 03:22:23 10° NNE visible
13 Mar 11.6 05:01:16 10° NNW 05:05:39 24° NNE 05:10:00 10° E visible
13 Mar 12.5 23:22:22 11° NNE 23:22:22 11° NNE 23:22:30 10° NNE visible
14 Mar 12.0 01:02:57 16° N 01:02:57 16° N 01:05:17 10° NNE visible
14 Mar 12.2 02:45:40 10° NNW 02:47:30 12° N 02:49:22 10° NNE visible
14 Mar 11.9 04:29:01 10° NNW 04:33:01 20° NNE 04:37:00 10° ENE visible
15 Mar 12.1 00:31:06 16° N 00:31:06 16° N 00:33:02 10° NNE visible
15 Mar 12.2 02:12:54 10° NNW 02:14:43 12° N 02:16:31 10° NNE visible
15 Mar 12.0 03:56:45 10° NNW 04:00:20 17° NNE 04:03:55 10° ENE visible
15 Mar 12.2 23:59:13 16° N 23:59:13 16° N 00:00:46 10° NNE visible
16 Mar 12.2 01:39:56 10° NNW 01:41:54 12° N 01:43:54 10° NNE visible
16 Mar 12.1 03:24:29 10° NNW 03:27:38 15° NNE 03:30:45 10° NE visible
16 Mar 12.2 23:27:17 15° NNE 23:27:17 15° NNE 23:28:30 10° NNE visible
17 Mar 12.2 01:07:51 12° NNW 01:09:07 13° N 01:11:25 10° NNE visible
17 Mar 12.2 02:52:11 10° NNW 02:54:53 14° NNE 02:57:35 10° NE visible
17 Mar 11.3 04:34:59 10° NNW 04:39:54 33° NE 04:44:46 10° ESE visible
17 Mar 12.2 22:55:17 15° NNE 22:55:17 15° NNE 22:56:14 10° NNE visible
18 Mar 12.2 00:35:51 14° NNW 00:36:21 14° NNW 00:39:03 10° NNE visible
18 Mar 12.3 02:19:48 10° NNW 02:22:07 13° N 02:24:25 10° NE visible
18 Mar 11.6 04:02:44 10° NNW 04:07:20 27° NE 04:11:54 10° E visible
18 Mar 12.1 22:23:11 14° NNE 22:23:11 14° NNE 22:23:58 10° NNE visible
19 Mar 12.1 00:03:45 15° NNW 00:03:45 15° NNW 00:06:45 10° NNE visible
19 Mar 12.3 01:47:21 10° NNW 01:49:19 12° N 01:51:19 10° NNE visible
19 Mar 11.8 03:30:28 10° NNW 03:34:43 23° NNE 03:38:57 10° E visible
19 Mar 12.0 21:50:55 14° NNE 21:50:55 14° NNE 21:51:40 10° NNE visible
19 Mar 12.0 23:31:28 17° NNW 23:31:28 17° NNW 23:34:28 10° NNE visible
20 Mar 12.4 01:14:42 10° NNW 01:16:32 12° N 01:18:21 10° NNE visible
20 Mar 12.0 02:58:12 10° NNW 03:02:04 19° NNE 03:05:55 10° ENE visible
20 Mar 10.1 04:41:03 10° NNW 04:46:27 63° NE 04:51:47 10° SE visible
20 Mar 11.8 21:18:25 15° NNE 21:18:25 15° NNE 21:19:21 10° NNE visible
20 Mar 11.9 22:58:56 20° NNW 22:58:56 20° NNW 23:02:12 10° NNE visible
